Location: Newark
(48.8519°N, 2.3472°E)
Time: 14:18:14
(UTC+00:00)

AAUSAT CUBESAT 2 - Visible Passes

Search period start: 16 October 2019 00:00
Search period end: 26 October 2019 00:00
Orbit: 574 x 591 km, 97.5° (Epoch: 16 October)

Date Brightness Start Highest point End Pass type
(mag) Time Alt. Az. Time Alt. Az. Time Alt. Az.
16 Oct ? 05:31:11 10° NE 05:33:54 17° E 05:36:37 10° SE visible
16 Oct ? 17:58:39 10° S 18:02:40 48° W 18:06:43 10° NNW visible
17 Oct ? 05:36:47 10° NE 05:39:48 19° E 05:42:46 10° SE visible
17 Oct ? 18:04:34 10° S 18:08:31 42° W 18:12:29 10° NNW visible
18 Oct ? 05:42:26 10° NE 05:45:40 22° E 05:48:52 10° SE visible
18 Oct ? 18:10:32 10° SSW 18:14:23 36° W 18:18:14 10° NNW visible
19 Oct ? 18:16:31 10° SSW 18:20:14 32° W 18:23:59 10° NNW visible
20 Oct ? 18:22:31 10° SSW 18:26:06 28° W 18:29:41 10° NW visible
21 Oct ? 18:28:34 10° SSW 18:31:58 24° W 18:35:23 10° NW visible
22 Oct ? 18:34:38 10° SW 18:37:51 22° W 18:41:04 10° NW visible
23 Oct ? 18:40:45 10° SW 18:43:43 19° W 18:46:41 10° NW visible
24 Oct ? 17:09:52 10° SSE 17:13:52 53° ENE 17:17:54 10° N visible
24 Oct ? 18:46:56 10° SW 18:49:36 17° W 18:52:17 10° NW visible
25 Oct ? 17:15:37 10° SSE 17:19:40 61° ENE 17:23:46 10° N visible
25 Oct ? 18:53:11 10° WSW 18:55:29 15° W 18:57:49 10° NW visible
